Weather History for Baltimore Martin, MD

Change the Weather History Date:

Thursday, October 4, 2012

  Actual Average Record
Temperature  
Mean Temperature 71 °F -  
Max Temperature 80 °F 67 °F 84 °F (2007)
Min Temperature 62 °F 51 °F 35 °F (1996)
Cooling Degree Days 6    
Growing Degree Days 21 (Base 50)    
Moisture  
Dew Point 69 °F    
Average Humidity 94    
Maximum Humidity 100    
Minimum Humidity 65    
Precipitation  
Precipitation 0.00 in - - ()
Sea Level Pressure  
Sea Level Pressure 30.12 in    
Wind  
Wind Speed 1 mph (West)    
Max Wind Speed 14 mph    
Max Gust Speed -    
Visibility 7 miles    
Events Rain    
Averages and records for this station are not official NWS values.
T = Trace of Precipitation, MM = Missing Value Source: NWS Daily Summary

Daily Weather History Graph

Daily Weather History Graph

Search for Another Location

Airport:

Trip Planner

Search our weather history database for the weather conditions in past years. The results will help you decide how hot, cold, wet, or windy it might be!

Date:

Astronomy

Oct. 04, 2012 Rise Set
Actual Time 7:05 AM EDT 6:42 PM EDT
Civil Twilight 6:38 AM EDT 7:09 PM EDT
Nautical Twilight 6:07 AM EDT 7:40 PM EDT
Astronomical Twilight 5:35 AM EDT 8:11 PM EDT
Moon 9:18 PM EDT (10/4) 11:18 AM EDT (10/4)
Length of Visible Light 12h 31m
Length of Day
11h 37m
Waning Gibbous, 82% of the Moon is Illuminated
Oct 4
Waning Gibbous
Oct 8
Last Quarter
Oct 15
New
Oct 21
First Quarter
Oct 29
Full

Hourly Weather History & Observations

Time (EDT) Temp. Heat Index Dew Point Humidity Pressure Visibility Wind Dir Wind Speed Gust Speed Precip Events Conditions
12:00 AM 69.8 °F - 69.8 °F 100% 30.13 in 5.0 mi Calm Calm - N/A   Clear
12:24 AM 69.8 °F - 69.8 °F 100% 30.13 in 7.0 mi Calm Calm - N/A   Clear
12:45 AM 71.6 °F - 71.6 °F 100% 30.13 in 7.0 mi Calm Calm - N/A   Clear
1:06 AM 71.6 °F - 71.6 °F 100% 30.13 in 7.0 mi Calm Calm - N/A   Clear
1:27 AM 69.8 °F - 69.8 °F 100% 30.13 in 7.0 mi Calm Calm - N/A   Clear
1:48 AM 69.8 °F - 69.8 °F 100% 30.13 in 7.0 mi Calm Calm - N/A Rain Light Rain
2:09 AM 69.8 °F - 69.8 °F 100% 30.13 in 7.0 mi Calm Calm - N/A   Clear
3:12 AM 69.8 °F - 69.8 °F 100% 30.12 in 7.0 mi Calm Calm - N/A   Scattered Clouds
3:33 AM 69.8 °F - 69.8 °F 100% 30.11 in 7.0 mi Calm Calm - N/A   Clear
3:57 AM 69.8 °F - 69.8 °F 100% 30.12 in 7.0 mi Calm Calm - N/A   Scattered Clouds
4:18 AM 69.8 °F - 69.8 °F 100% 30.12 in 7.0 mi Calm Calm - N/A   Mostly Cloudy
4:39 AM 69.8 °F - 69.8 °F 100% 30.13 in 7.0 mi Calm Calm - N/A   Mostly Cloudy
5:00 AM 69.8 °F - 69.8 °F 100% 30.12 in 7.0 mi WNW 3.5 mph - N/A   Scattered Clouds
5:21 AM 69.8 °F - 69.8 °F 100% 30.12 in 7.0 mi Calm Calm - N/A   Scattered Clouds
5:33 AM 69.8 °F - 69.8 °F 100% 30.12 in 7.0 mi Calm Calm - N/A   Clear
5:45 AM 71.6 °F - 71.6 °F 100% 30.12 in 7.0 mi Calm Calm - N/A   Mostly Cloudy
6:45 AM 71.6 °F - 71.6 °F 100% 30.13 in 7.0 mi Calm Calm - N/A   Overcast
7:45 AM 71.6 °F - 71.6 °F 100% 30.13 in 5.0 mi Calm Calm - N/A   Light Drizzle
8:20 AM 71.6 °F - 71.6 °F 100% 30.15 in 2.5 mi West 3.5 mph - N/A   Overcast
8:45 AM 71.6 °F - 71.6 °F 100% 30.15 in 2.0 mi Calm Calm - N/A   Overcast
9:50 AM 71.6 °F - 71.6 °F 100% 30.13 in 2.5 mi Calm Calm - N/A   Overcast
10:45 AM 73.4 °F - 73.4 °F 100% 30.15 in 2.5 mi Calm Calm - N/A   Overcast
11:45 AM 75.2 °F - 73.4 °F 94% 30.13 in 3.0 mi Calm Calm - N/A   Overcast
12:45 PM 77.0 °F - 73.4 °F 89% 30.12 in 5.0 mi WSW 4.6 mph - N/A   Haze
1:45 PM 80.6 °F 83.2 °F 68.0 °F 65% 30.10 in 10.0 mi West 4.6 mph - N/A   Mostly Cloudy
2:54 PM 80.6 °F 83.2 °F 68.0 °F 65% 30.08 in 10.0 mi West 4.6 mph - N/A   Mostly Cloudy
3:54 PM 78.8 °F - 68.0 °F 69% 30.08 in 10.0 mi WNW 13.8 mph - N/A   Mostly Cloudy
5:45 PM 77.0 °F - 64.4 °F 65% 30.10 in 10.0 mi NW 6.9 mph - N/A   Scattered Clouds
6:45 PM 73.4 °F - 64.4 °F 73% 30.10 in 10.0 mi WNW 5.8 mph - N/A   Scattered Clouds
8:45 PM 66.2 °F - 64.4 °F 94% 30.10 in 10.0 mi Calm Calm - N/A   Scattered Clouds
9:45 PM 66.2 °F - 64.4 °F 94% 30.12 in 10.0 mi Calm Calm - N/A   Scattered Clouds
10:21 PM 64.4 °F - 62.6 °F 94% 30.12 in 10.0 mi Calm Calm - N/A   Clear
10:42 PM 64.4 °F - 62.6 °F 94% 30.12 in 7.0 mi Calm Calm - N/A   Clear
11:03 PM 62.6 °F - 62.6 °F 100% 30.12 in 10.0 mi Calm Calm - N/A   Clear
11:24 PM 62.6 °F - 60.8 °F 94% 30.12 in 10.0 mi Calm Calm - N/A   Clear
11:48 PM 62.6 °F - 60.8 °F 94% 30.12 in 10.0 mi West 3.5 mph - N/A   Clear